シュヴァスマン-ヴァハマン第1彗星

29P/Schwassmann-Wachmann 1 (2019)

English version
Home page
Updated on April 25, 2020

---------------------------------------------------------------------

・ プロフィール

・ 写真集

・ 軌道要素

Epoch 2019 Mar. 18.0 TT = JDT 2458560.5
T 2019 Mar. 7.75667 TT                                  Rudenko
q   5.7668219            (2000.0)            P               Q
n   0.06662629     Peri.   47.77445     +0.99270155     -0.00956949
a   6.0261367      Node   312.39455     -0.05135141     +0.86841762
e   0.0430317      Incl.    9.36833     +0.10911766     +0.49574112
P  14.8
From 30646 observations 1902 Mar. 5-2020 Mar. 18, mean residual 0".6.

・ 星図

・ 光度変化

        m1 = 4.0 + 5 logΔ + 7.5 log r

---------------------------------------------------------------------

軌道要素はM.P.E.C. 2020-F67に掲載されたものです。
星図はステラナビゲータ Ver.8 (アストロアーツ) で作成したものです。
光度グラフはComet for Windowsで作成したものです。

---------------------------------------------------------------------

Copyright(C) Seiichi Yoshida (comet@aerith.net). All rights reserved.